FW4399 Weather Reports


Display with metric or nautical units.
time (UTC)temp
F
wind
direction
speed
MPH
gust
MPH
rain 1hr
in
rain 24hr
in
rain mn
in
humidity
%
barometer
mb
20260506083019 49 359 8.0 0.0 0.00 0.00 0.00 80 1008.9
20260506081628 48 349 9.0 0.0 0.00 0.00 0.00 82 1008.9
20260506080130 48 351 11.0 0.0 0.00 0.00 0.00 82 1008.9
20260506073012 46 326 10.0 0.0 0.00 0.00 0.00 86 1008.9
20260506071634 45 338 10.0 0.0 0.00 0.00 0.00 87 1008.8
20260506070131 44 334 8.0 0.0 0.00 0.00 0.00 88 1008.7
20260506061556 43 346 6.0 0.0 0.00 0.00 0.00 88 1008.4
20260506050120 40 330 8.0 0.0 0.00 0.00 0.00 90 1008.4
20260506044623 39 345 8.0 0.0 0.00 0.00 0.00 90 1008.2
20260506043039 39 335 8.0 0.0 0.00 0.00 0.00 89 1008.3
20260506041639 40 333 8.0 0.0 0.00 0.00 0.00 89 1008.4
20260506040043 40 341 9.0 0.0 0.00 0.00 0.00 89 1008.4
20260506034604 40 335 9.0 0.0 0.00 0.00 0.00 89 1008.4
20260506033129 40 337 10.0 0.0 0.00 0.00 0.00 88 1008.4
20260506031524 41 328 9.0 0.0 0.00 0.00 0.00 88 1008.4
20260506030133 41 330 9.0 0.0 0.00 0.00 0.00 88 1008.4
20260506024541 41 326 9.0 0.0 0.00 0.00 0.00 88 1008.5
20260506023132 41 328 9.0 0.0 0.00 0.00 0.00 88 1008.8
20260506021519 41 338 8.0 0.0 0.00 0.00 0.00 88 1008.8
20260506020033 42 330 9.0 0.0 0.00 0.00 0.00 87 1008.8
20260506014531 42 332 7.0 0.0 0.00 0.00 0.00 87 1008.9
20260506013135 42 334 7.0 0.0 0.00 0.00 0.00 86 1009.0
20260506011537 43 343 6.0 0.0 0.00 0.00 0.00 85 1009.0
20260506010111 44 335 6.0 0.0 0.00 0.00 0.00 85 1009.0
20260506004627 44 334 7.0 0.0 0.00 0.00 0.00 84 1009.2
20260506003138 45 330 5.0 0.0 0.00 0.00 0.00 83 1009.3
20260506001529 45 348 7.0 0.0 0.00 0.00 0.00 81 1009.3
20260506000132 46 344 6.0 0.0 0.00 0.00 0.00 81 1009.4
20260505234526 46 353 6.0 0.0 0.00 0.00 0.00 80 1009.4
20260505233041 46 338 6.0 0.0 0.00 0.00 0.00 80 1009.5
20260505231649 47 348 6.0 0.0 0.00 0.00 0.00 79 1009.5
20260505230101 47 0 6.0 0.0 0.00 0.00 0.00 79 1009.5
20260505224549 47 358 6.0 0.0 0.00 0.00 0.00 79 1009.5
20260505223036 47 12 7.0 0.0 0.00 0.00 0.00 79 1009.4
20260505221635 47 349 7.0 0.0 0.00 0.00 0.00 78 1009.5
20260505220135 47 347 7.0 0.0 0.00 0.00 0.00 78 1009.6
20260505214615 47 22 7.0 0.0 0.00 0.00 0.00 78 1009.6
20260505213105 48 1 6.0 0.0 0.00 0.00 0.00 78 1009.5
20260505211512 48 359 7.0 0.0 0.00 0.00 0.00 79 1009.5
20260505210108 48 10 7.0 0.0 0.00 0.00 0.00 80 1009.5
20260505204629 48 18 6.0 0.0 0.00 0.00 0.00 79 1009.5
20260505203056 49 354 6.0 0.0 0.00 0.00 0.00 78 1009.4
20260505201534 49 21 7.0 0.0 0.00 0.00 0.00 77 1009.5
20260505200057 49 359 8.0 0.0 0.00 0.00 0.00 76 1009.4
20260505194614 49 0 6.0 0.0 0.00 0.00 0.00 78 1009.3
20260505193026 50 356 8.0 0.0 0.00 0.00 0.00 78 1009.1
20260505191630 50 15 7.0 0.0 0.00 0.00 0.00 78 1008.9
20260505190022 50 0 8.0 0.0 0.00 0.00 0.00 78 1008.8
20260505184538 51 38 6.0 0.0 0.00 0.00 0.00 78 1008.6
20260505183033 51 25 8.0 0.0 0.00 0.00 0.00 77 1008.5
20260505181534 52 31 7.0 0.0 0.00 0.00 0.00 77 1008.5
20260505180132 52 7 8.0 0.0 0.00 0.00 0.00 76 1008.5
20260505174628 53 19 9.0 0.0 0.00 0.00 0.00 74 1008.4
20260505173143 54 359 8.0 0.0 0.00 0.00 0.00 74 1008.4
20260505171646 55 17 10.0 0.0 0.00 0.00 0.00 72 1008.4
20260505170044 55 46 9.0 0.0 0.00 0.00 0.00 74 1008.4
20260505164601 56 39 9.0 0.0 0.00 0.00 0.00 73 1008.4
20260505163010 56 76 9.0 0.0 0.00 0.00 0.00 73 1008.3
20260505161605 57 37 9.0 0.0 0.00 0.00 0.00 72 1008.1
20260505153133 56 57 7.0 0.0 0.00 0.00 0.00 72 1008.3
20260505151603 56 32 6.0 0.0 0.00 0.00 0.00 72 1008.3
20260505124521 64 58 7.0 0.0 0.00 0.00 0.00 65 1008.3
20260505123048 62 1 6.0 0.0 0.00 0.00 0.00 56 1008.1
20260505121501 65 352 5.0 0.0 0.00 0.00 0.00 54 1008.3
20260505120045 66 331 6.0 0.0 0.00 0.00 0.00 50 1008.3
20260505114551 64 342 4.0 0.0 0.00 0.00 0.00 58 1008.4
20260505113036 63 351 5.0 0.0 0.00 0.00 0.00 58 1008.4
20260505111527 64 257 5.0 0.0 0.00 0.00 0.00 55 1008.5
20260505110136 63 345 4.0 0.0 0.00 0.00 0.00 57 1008.6
20260505101508 60 324 3.0 0.0 0.00 0.00 0.00 69 1008.9
20260505100045 60 330 4.0 0.0 0.00 0.00 0.00 67 1008.9
20260505094646 58 294 4.0 0.0 0.00 0.00 0.00 70 1009.0
20260505093058 57 331 3.0 0.0 0.00 0.00 0.00 72 1009.0
20260505091503 56 335 4.0 0.0 0.00 0.00 0.00 72 1009.0
20260505090026 56 343 4.0 0.0 0.00 0.00 0.00 75 1009.0
20260505084630 55 336 4.0 0.0 0.00 0.00 0.00 76 1009.1